Wind_Speed
11 11 10 9 9 8 8 8 7 7 6 6 5 4 4 4 4 3 2 2 2 2 2 3 3 4 4 4 4 4 4 5 5 6 6 6 6 6 6 6 7 6 5
11 10 10 9 9 9 8 8 7 6 6 5 5 5 4 4 4 4 3 3 2 2 2 2 3 3 4 3 3 4 3 4 4 5 5 6 6 6 6 7 7 6 5
11 10 10 9 9 8 8 8 7 6 6 5 5 5 5 5 4 4 4 3 3 3 3 2 2 3 3 3 3 3 3 3 4 4 5 5 6 7 7 7 7 7 6
10 10 10 9 9 9 8 8 8 7 6 5 5 5 5 5 5 4 3 2 2 1 2 2 2 2 2 2 2 2 3 3 5 5 5 5 5 6 6 6 7 7 7
10 10 10 9 9 9 8 8 8 7 6 6 5 5 5 5 5 4 3 2 2 1 1 1 2 1 2 2 2 2 3 4 5 5 6 6 5 5 6 6 7 7 6
10 10 9 9 9 9 8 8 8 7 7 6 6 6 6 6 5 5 4 3 3 2 1 2 1 1 1 2 2 3 4 4 5 6 6 5 5 6 5 5 7 7 7
9 9 9 9 9 9 8 8 8 7 7 6 5 5 5 5 5 5 4 4 3 2 2 3 3 2 1 1 2 4 4 4 5 5 5 5 5 5 6 5 7 7 6
9 10 9 9 8 8 9 8 7 7 7 6 5 5 5 5 4 4 4 4 3 2 3 2 2 2 2 2 2 3 3 3 3 4 5 5 5 5 6 6 6 7 6
9 9 9 8 8 8 8 8 7 7 6 6 6 5 5 4 4 4 4 4 3 3 2 2 1 1 2 2 2 1 1 2 3 3 4 4 5 5 6 6 7 7 7
9 9 9 8 8 8 8 8 8 7 6 6 6 5 4 4 4 4 4 3 3 3 2 2 2 2 2 2 2 2 2 2 3 4 4 4 4 5 6 6 6 6 7
9 9 9 8 8 8 8 8 8 7 7 7 6 5 5 4 4 4 4 3 4 3 3 3 3 3 3 3 3 3 3 3 4 3 3 4 5 6 6 5 6 6 6
9 8 8 8 8 8 7 7 8 8 8 7 6 5 5 5 4 4 4 4 4 3 3 3 3 3 3 3 4 3 3 3 4 4 4 4 4 5 5 5 6 6 7
8 8 8 8 7 7 7 7 8 8 7 6 6 5 5 5 4 4 4 4 4 4 4 3 3 4 3 3 3 3 4 4 4 4 4 4 5 5 5 6 6 6 7
8 7 7 7 6 7 7 7 8 8 7 7 6 5 6 5 5 5 5 4 4 4 4 4 4 4 4 4 4 4 5 5 5 5 5 5 5 5 6 6 6 7 7
8 8 7 6 6 6 7 7 7 8 8 7 7 6 6 6 6 6 5 5 5 5 5 5 5 5 5 5 4 5 5 6 5 5 5 5 5 6 6 6 7 6 7
8 8 7 6 6 6 7 7 7 7 8 8 7 7 6 6 6 7 6 6 6 6 5 5 5 5 5 5 5 5 5 5 6 5 5 5 6 6 6 6 6 6 6
8 7 7 6 6 6 6 7 7 8 8 8 8 8 7 7 6 7 6 6 5 5 5 5 5 5 5 6 5 6 6 6 5 5 6 6 6 6 6 6 6 6 5
9 8 7 6 6 6 6 7 7 8 8 9 8 8 8 8 7 7 6 6 5 5 5 5 5 5 5 6 6 6 7 6 6 6 6 7 6 7 7 7 6 5 6
9 8 7 6 6 6 7 8 8 8 8 8 8 9 8 9 8 7 7 6 5 5 5 6 6 5 6 6 6 7 7 7 7 7 7 7 7 7 7 7 7 7 7
10 8 8 7 6 6 7 8 8 8 8 9 9 9 8 8 8 8 8 6 5 6 6 6 6 6 6 7 7 7 7 7 7 7 8 8 7 7 7 7 7 6 7
11 10 9 9 8 8 8 9 9 9 8 9 9 9 8 8 9 8 8 7 6 6 6 7 7 7 7 7 7 7 7 7 7 7 8 8 8 7 7 7 6 6 7
11 10 9 9 9 9 9 9 9 9 9 9 9 9 9 8 9 9 9 7 7 7 7 8 8 7 7 7 7 7 8 8 7 7 7 7 7 7 6 6 7 7 8
11 11 10 10 10 10 10 10 9 9 8 9 9 9 9 8 9 10 9 9 8 8 8 8 8 8 9 8 8 8 9 9 8 8 8 8 8 7 6 7 8 8 9
11 11 11 11 11 11 10 10 10 9 9 9 10 10 10 10 10 10 10 10 9 9 9 9 9 9 8 8 9 9 9 9 9 8 8 9 9 8 7 7 8 9 10
12 12 12 12 11 11 11 10 10 9 9 10 10 10 10 10 10 10 11 11 10 10 10 10 10 10 9 9 9 9 10 10 10 9 9 9 8 8 8 9 10 10 10
14 13 13 13 12 11 11 11 11 10 10 10 10 10 10 10 11 11 11 11 10 10 10 10 11 11 10 10 10 9 9 10 9 9 10 10 10 10 10 10 11 11 11
Wind_Direction
17 23 25 23 19 16 14 12 10 11 12 8 4 355 348 345 337 318 287 246 237 264 262 243 234 238 240 242 238 230 223 227 227 215 216 213 210 203 203 203 205 204 196
19 22 22 19 16 12 9 8 6 7 8 6 3 356 345 340 332 324 310 280 261 268 256 223 222 230 232 238 233 224 215 211 210 214 213 214 213 210 210 207 212 215 216
16 17 17 16 13 11 8 5 1 0 2 2 1 356 347 343 337 322 315 303 275 255 231 212 204 222 225 228 224 211 212 211 217 223 217 203 206 211 208 212 217 219 219
13 16 16 13 11 9 8 4 360 357 356 355 356 352 348 342 341 336 328 318 313 253 218 187 190 203 189 186 205 212 221 223 225 230 225 215 201 206 209 213 216 218 216
10 12 12 9 6 3 3 3 2 358 355 354 352 351 348 343 339 341 337 335 345 350 286 215 196 198 202 196 199 217 233 231 229 228 230 225 220 211 209 211 211 210 207
6 8 7 4 359 359 360 358 356 355 350 349 347 345 346 342 337 338 332 325 325 319 307 283 228 208 217 216 212 218 232 231 232 229 231 221 219 218 220 220 211 207 207
1 5 6 4 358 356 357 355 354 353 351 349 341 340 341 337 334 335 331 326 324 323 315 299 277 258 258 243 230 222 225 235 246 244 232 226 223 218 222 223 212 209 209
356 360 1 1 357 353 351 352 351 350 351 349 342 338 339 339 338 337 334 332 327 316 305 305 294 274 261 250 251 230 228 238 247 250 236 229 224 219 226 228 224 222 219
351 356 1 359 356 354 352 351 351 351 351 347 341 334 331 328 329 332 327 328 328 318 311 304 283 250 226 231 235 222 256 255 254 248 241 233 223 225 231 237 235 236 232
345 349 355 355 351 351 350 353 355 354 354 352 347 340 335 327 325 327 328 326 322 320 308 297 289 266 263 270 286 289 299 288 262 253 244 245 238 234 242 245 237 234 230
342 346 350 353 353 351 354 356 357 356 356 353 349 346 344 334 325 326 327 326 326 316 299 285 280 281 282 283 284 297 296 291 281 257 257 252 248 247 249 249 241 237 230
340 340 345 352 355 355 360 359 359 357 356 356 353 345 342 340 332 329 327 323 324 318 308 295 283 276 282 282 276 282 298 301 288 266 261 261 265 263 263 261 253 247 242
337 337 339 347 350 354 359 357 355 353 355 353 347 338 334 335 328 324 329 326 318 307 298 292 287 286 286 292 285 280 280 292 296 275 269 274 275 272 268 265 261 253 252
331 333 334 341 346 349 352 351 353 354 352 352 352 340 331 329 327 323 316 309 306 301 299 297 293 300 304 302 290 287 283 283 283 272 264 269 269 270 267 263 262 257 255
327 330 334 335 344 346 347 351 352 349 349 355 354 351 338 334 333 330 316 304 296 290 294 292 293 300 303 303 299 296 291 285 284 278 267 264 264 267 265 258 255 258 260
321 320 329 332 344 351 354 355 351 347 345 349 351 347 340 335 330 327 321 305 291 283 278 282 290 296 299 300 297 297 297 289 280 279 278 272 268 262 258 256 252 253 257
311 315 321 326 339 348 353 351 347 344 344 347 346 343 337 330 323 321 321 313 296 281 277 281 285 289 292 298 297 294 295 288 288 288 278 270 268 264 261 260 261 259 255
303 305 310 312 323 336 342 341 339 339 340 339 337 334 330 330 328 322 319 316 300 283 280 285 284 286 286 291 293 290 284 283 291 290 278 269 267 264 259 261 264 261 254
301 301 300 309 316 326 332 332 333 330 332 333 333 331 328 329 329 323 317 311 302 288 282 282 283 287 287 287 292 288 283 280 288 290 281 272 275 271 269 265 259 255 253
296 295 296 296 303 317 323 325 328 326 324 325 325 327 329 327 326 324 318 307 298 288 283 282 284 284 284 285 288 289 293 291 287 285 281 278 276 271 272 268 257 254 257
290 289 293 293 294 300 309 317 320 323 321 321 321 322 325 326 326 321 317 313 305 296 290 288 289 285 282 278 282 287 292 290 290 289 286 278 270 271 271 267 267 265 264
287 287 286 288 290 293 301 306 310 313 315 316 314 316 320 321 322 319 313 309 302 295 290 287 286 287 281 277 281 281 284 285 283 289 290 281 271 273 271 274 273 270 267
278 280 280 281 285 289 294 298 303 307 307 309 312 313 315 315 316 317 311 304 301 293 286 286 282 287 283 275 275 277 276 275 274 283 287 281 276 272 272 272 271 267 267
277 275 278 279 280 283 288 295 297 301 301 303 304 306 306 305 307 311 311 305 296 290 286 284 281 282 281 275 269 272 275 275 277 279 281 280 277 277 275 277 276 272 271
275 274 274 275 276 278 282 289 293 296 296 298 301 304 304 303 303 305 306 303 295 291 286 281 279 278 277 276 276 277 276 276 275 272 277 279 279 279 276 278 280 279 276
272 273 274 274 274 276 278 284 287 288 290 292 296 301 302 302 307 307 303 298 294 291 286 281 278 275 276 276 277 278 278 276 272 271 275 278 277 277 279 282 282 282 279
Height
5897 5895 5894 5893 5892 5892 5891 5890 5889 5888 5887 5886 5885 5885 5884 5883 5883 5882 5882 5881 5881 5880 5880 5880 5880 5880 5880 5880 5880 5880 5880 5880 5880 5880 5881 5881 5881 5882 5882 5883 5883 5884 5884
5897 5896 5895 5894 5893 5892 5891 5890 5889 5888 5887 5886 5886 5885 5884 5883 5883 5882 5882 5881 5880 5880 5879 5879 5879 5879 5879 5879 5879 5879 5879 5880 5880 5880 5880 5880 5880 5881 5882 5882 5883 5883 5884
5898 5897 5896 5894 5893 5892 5891 5890 5889 5888 5887 5886 5886 5885 5884 5883 5882 5882 5881 5880 5880 5879 5879 5879 5879 5879 5879 5879 5879 5879 5879 5879 5879 5880 5880 5879 5879 5880 5881 5881 5882 5882 5883
5898 5897 5896 5895 5894 5893 5892 5890 5889 5888 5887 5887 5886 5885 5884 5883 5882 5882 5881 5880 5879 5879 5879 5879 5879 5879 5879 5879 5879 5879 5879 5879 5879 5879 5879 5879 5879 5879 5880 5880 5881 5881 5882
5899 5898 5897 5896 5894 5893 5892 5891 5890 5888 5887 5887 5886 5885 5884 5883 5882 5882 5881 5880 5879 5879 5879 5879 5879 5879 5878 5879 5879 5878 5878 5878 5878 5878 5879 5879 5879 5879 5879 5880 5880 5881 5881
5899 5898 5897 5896 5895 5893 5892 5891 5890 5889 5887 5887 5886 5885 5884 5883 5882 5882 5881 5880 5880 5880 5879 5879 5879 5878 5878 5878 5878 5878 5877 5878 5878 5878 5878 5879 5879 5879 5879 5879 5880 5880 5881
5900 5898 5897 5896 5895 5893 5892 5891 5890 5889 5887 5886 5886 5885 5884 5883 5882 5882 5881 5880 5880 5879 5879 5879 5879 5878 5878 5878 5878 5877 5877 5877 5877 5877 5878 5878 5878 5878 5878 5878 5879 5879 5880
5900 5898 5897 5896 5895 5894 5892 5891 5890 5888 5887 5886 5885 5884 5884 5883 5882 5881 5881 5880 5880 5879 5879 5879 5878 5878 5878 5878 5878 5877 5877 5876 5877 5877 5877 5877 5877 5877 5877 5877 5878 5879 5879
5899 5898 5897 5896 5895 5893 5892 5891 5889 5888 5887 5886 5885 5884 5883 5882 5882 5881 5881 5880 5879 5879 5878 5878 5878 5878 5877 5877 5877 5877 5877 5876 5876 5876 5876 5876 5876 5876 5877 5877 5877 5877 5878
5899 5898 5897 5895 5894 5893 5892 5891 5889 5888 5887 5886 5885 5884 5883 5882 5881 5881 5880 5880 5879 5878 5878 5878 5878 5877 5877 5877 5877 5876 5876 5876 5876 5875 5875 5875 5875 5876 5876 5876 5876 5876 5877
5899 5898 5896 5895 5894 5892 5891 5890 5889 5888 5887 5885 5884 5883 5883 5882 5881 5880 5880 5879 5878 5878 5877 5877 5877 5877 5877 5876 5876 5876 5875 5875 5875 5875 5874 5874 5874 5875 5875 5875 5875 5875 5875
5899 5897 5896 5894 5893 5892 5891 5890 5889 5888 5886 5885 5884 5883 5882 5882 5881 5880 5879 5879 5878 5877 5877 5876 5876 5876 5876 5876 5875 5875 5875 5874 5874 5874 5873 5873 5873 5873 5874 5874 5874 5874 5874
5898 5897 5895 5894 5893 5892 5891 5890 5888 5887 5886 5885 5884 5883 5882 5881 5880 5879 5879 5878 5877 5877 5876 5876 5875 5875 5875 5874 5874 5874 5874 5873 5873 5873 5872 5872 5872 5873 5873 5873 5873 5873 5873
5897 5896 5895 5893 5892 5891 5890 5889 5888 5887 5885 5884 5883 5882 5881 5880 5879 5879 5878 5877 5876 5875 5875 5875 5874 5874 5873 5873 5873 5873 5872 5872 5872 5871 5871 5871 5871 5871 5871 5871 5872 5872 5872
5896 5895 5894 5892 5892 5891 5890 5889 5887 5886 5885 5884 5883 5882 5881 5880 5879 5878 5877 5876 5875 5874 5874 5874 5873 5873 5873 5872 5872 5872 5871 5871 5871 5870 5870 5870 5870 5870 5870 5870 5870 5870 5871
5895 5893 5892 5891 5891 5890 5889 5888 5887 5886 5884 5883 5882 5881 5880 5879 5878 5877 5876 5875 5874 5873 5873 5873 5873 5872 5872 5871 5871 5870 5870 5870 5869 5869 5869 5869 5869 5868 5869 5869 5868 5868 5868
5893 5892 5891 5889 5889 5889 5888 5887 5886 5885 5884 5882 5881 5880 5879 5878 5877 5876 5875 5873 5872 5872 5872 5871 5871 5871 5871 5870 5870 5869 5869 5868 5868 5868 5867 5867 5867 5867 5867 5867 5867 5867 5867
5891 5891 5890 5888 5888 5887 5887 5886 5885 5884 5882 5881 5880 5879 5877 5876 5875 5874 5873 5872 5871 5870 5870 5870 5870 5870 5869 5869 5869 5868 5868 5867 5867 5866 5866 5865 5865 5865 5865 5865 5865 5865 5865
5889 5888 5888 5887 5886 5886 5885 5884 5883 5882 5881 5880 5879 5877 5876 5875 5874 5873 5872 5871 5870 5869 5869 5869 5869 5868 5868 5868 5867 5867 5866 5866 5865 5864 5864 5864 5863 5863 5863 5863 5863 5863 5863
5887 5887 5885 5885 5884 5884 5883 5882 5882 5880 5879 5878 5877 5876 5875 5874 5872 5871 5870 5869 5869 5868 5868 5867 5867 5867 5866 5866 5866 5866 5865 5864 5863 5863 5862 5862 5861 5861 5861 5861 5861 5861 5861
5884 5884 5883 5883 5882 5882 5881 5880 5879 5878 5877 5876 5875 5874 5873 5872 5871 5870 5869 5868 5867 5867 5866 5866 5865 5865 5865 5864 5864 5864 5863 5863 5862 5861 5861 5860 5860 5859 5859 5859 5859 5859 5859
5881 5881 5881 5881 5880 5879 5878 5878 5877 5876 5874 5873 5872 5871 5871 5870 5869 5868 5867 5866 5866 5865 5865 5864 5863 5863 5863 5862 5862 5862 5862 5862 5860 5859 5859 5858 5858 5857 5857 5858 5858 5857 5857
5878 5878 5878 5878 5877 5876 5875 5875 5874 5873 5872 5871 5870 5869 5869 5868 5867 5866 5865 5864 5864 5863 5863 5862 5861 5861 5861 5860 5860 5860 5860 5860 5859 5858 5857 5857 5856 5855 5856 5856 5855 5855 5854
5875 5875 5875 5875 5874 5873 5872 5872 5871 5870 5869 5869 5868 5867 5866 5865 5865 5864 5863 5862 5861 5861 5860 5860 5859 5859 5859 5858 5858 5858 5857 5857 5857 5856 5856 5855 5854 5854 5853 5853 5853 5852 5852
5872 5872 5872 5872 5871 5870 5869 5868 5868 5867 5867 5866 5865 5864 5864 5863 5862 5861 5860 5860 5859 5858 5858 5857 5857 5857 5856 5856 5856 5855 5855 5854 5854 5854 5854 5853 5852 5852 5851 5851 5850 5849 5848
5868 5868 5868 5868 5867 5867 5866 5865 5865 5864 5864 5863 5862 5861 5861 5860 5859 5859 5857 5857 5856 5855 5855 5854 5854 5854 5854 5854 5853 5853 5852 5852 5851 5851 5851 5851 5850 5850 5849 5848 5847 5846 5845